Pagina principale
METAR-TAF:

METAR-TAF

Aeroporti :

Parsabad, Iran

latitudine: 39-36-13N, longitudine: 47-52-53E, altezza: 77 m

Osservazione

Il bollettino è stato emesso 50 minuti fa, alle 04:00 UTC
Vento 4 kt da ovest
Temperature 8°C
Umidità 100%
Pressione 1003 hPa
Visibilità 10 km o più
Nubi sparse ad un'altezza di 4000 ft

METAR: OITP 300400Z 26004KT 9999 SCT040 08/08 Q1003

Ora: 09:20 (04:50 UTC)


TAF: mancante

Osservazioni e previsioni meteorologiche di più di 4000 aeroporti (messaggi METAR e TAF).

Le stazioni disponibili sono rappresentate dai dischi gialli e rossi sulla carta.

Puntare il mouse per vedere il nome della stazione.

Clicca sopra per visualizzare le osservazioni e previsioni meteorologiche.

Per cambiare la mappa : fare clic sui pulsanti verdi con una croce nera per ingrandire, il pulsante verde con un trattino per diminuire, o sulla freccia verde per le mappe adiacenti.


METAR-TAF: